Siloam Springs, AR

8:51 PM CDT on May 27, 2017 (GMT -0500)
Smith

Weather History for KSLG - January, 2013

Change the Weather History Date:

Tuesday, January 29, 2013

  Actual Average Record
Temperature  
Mean Temperature 56 °F -  
Max Temperature 66 °F 45 °F 73 °F (2011)
Min Temperature 46 °F 27 °F 8 °F (2014)
Degree Days  
Heating Degree Days 9    
Growing Degree Days 6 (Base 50)    
Moisture  
Dew Point 49 °F    
Average Humidity 81    
Maximum Humidity 88    
Minimum Humidity 73    
Precipitation  
Precipitation 0.49 in - - ()
Sea Level Pressure  
Sea Level Pressure 29.56 in    
Wind  
Wind Speed 14 mph (SSE)    
Max Wind Speed 22 mph    
Max Gust Speed 30 mph    
Visibility 9 miles    
Events Thunderstorm    
Averages and records for this station are not official NWS values.
T = Trace of Precipitation, MM = Missing Value Source: NWS Daily Summary

Daily Weather History Graph

Daily Weather History Graph

Search for Another Location

Airport or City:

Trip Planner

Search our weather history database for the weather conditions in past years. The results will help you decide how hot, cold, wet, or windy it might be!

Date:

Astronomy

Jan. 29, 2013 Rise Set
Actual Time 7:21 AM CST 5:41 PM CST
Civil Twilight 6:53 AM CST 6:08 PM CST
Nautical Twilight 6:22 AM CST 6:39 PM CST
Astronomical Twilight 5:52 AM CST 7:10 PM CST
Moon 8:31 PM CST (1/29) 8:24 AM CST (1/29)
Length of Visible Light 11h 15m
Length of Day
10h 20m
Waning Gibbous, 93% of the Moon is Illuminated
Jan 29
Waning Gibbous
Feb 3
Last Quarter
Feb 10
New
Feb 17
First Quarter
Feb 25
Full

Hourly Weather History & Observations

Time (CST) Temp. Windchill Dew Point Humidity Pressure Visibility Wind Dir Wind Speed Gust Speed Precip Events Conditions
1:55 AM 64.4 °F - 55.4 °F 73% 29.82 in 10.0 mi South 18.4 mph 25.3 mph N/A   Scattered Clouds
3:15 AM 64.4 °F - 55.4 °F 73% 29.81 in 10.0 mi South 19.6 mph 25.3 mph N/A   Scattered Clouds
6:55 AM 64.4 °F - 57.2 °F 77% 29.73 in 10.0 mi South 21.9 mph 27.6 mph N/A   Overcast
12:35 PM 66.2 °F - 60.8 °F 83% 29.57 in 10.0 mi South 21.9 mph 29.9 mph N/A   Mostly Cloudy
1:15 PM 66.2 °F - 60.8 °F 83% 29.54 in 10.0 mi South 20.7 mph 27.6 mph N/A   Overcast
1:35 PM 66.2 °F - 60.8 °F 83% 29.53 in 10.0 mi South 18.4 mph 24.2 mph N/A   Overcast
2:15 PM 66.2 °F - 59.0 °F 78% 29.52 in 10.0 mi West 12.7 mph 21.9 mph N/A   Overcast
2:35 PM 57.2 °F - 51.8 °F 82% 29.50 in 9.0 mi NNW 18.4 mph 21.9 mph N/A Thunderstorm Overcast
2:55 PM 55.4 °F - 48.2 °F 77% 29.52 in 9.0 mi NNW 15.0 mph 18.4 mph N/A Thunderstorm Overcast
3:15 PM 53.6 °F - 48.2 °F 82% 29.49 in 4.0 mi NNW 19.6 mph 25.3 mph N/A Thunderstorm Thunderstorm
3:16 PM 53.6 °F - 48.2 °F 82% 29.49 in 4.0 mi NNW 19.6 mph 25.3 mph N/A Thunderstorm Thunderstorm
3:35 PM 53.6 °F - 48.2 °F 82% 29.53 in 9.0 mi NNW 6.9 mph - N/A   Overcast
4:15 PM 53.6 °F - 48.2 °F 82% 29.53 in 10.0 mi NE 6.9 mph - N/A Thunderstorm Overcast
4:35 PM 53.6 °F - 48.2 °F 82% 29.53 in 8.0 mi NE 4.6 mph - N/A   Overcast
4:55 PM 53.6 °F - 48.2 °F 82% 29.53 in 5.0 mi Calm Calm - N/A   Overcast
5:15 PM 53.6 °F - 48.2 °F 82% 29.54 in 5.0 mi ESE 5.8 mph - N/A   Overcast
5:36 PM 53.6 °F - 48.2 °F 82% 29.54 in 5.0 mi East 5.8 mph - N/A   Overcast
5:55 PM 53.6 °F - 48.2 °F 82% 29.54 in 6.0 mi East 3.5 mph - 0.15 in   Overcast
6:15 PM 53.6 °F - 48.2 °F 82% 29.56 in 7.0 mi ESE 8.1 mph - 0.03 in   Overcast
6:55 PM 53.6 °F - 48.2 °F 82% 29.54 in 10.0 mi East 8.1 mph - 0.11 in   Overcast
7:15 PM 53.6 °F - 48.2 °F 82% 29.52 in 10.0 mi East 8.1 mph - 0.02 in   Overcast
7:35 PM 53.6 °F - 48.2 °F 82% 29.52 in 10.0 mi ESE 8.1 mph - 0.02 in   Overcast
7:55 PM 53.6 °F - 48.2 °F 82% 29.51 in 10.0 mi ESE 5.8 mph - 0.04 in   Overcast
8:35 PM 51.8 °F - 46.4 °F 82% 29.52 in 9.0 mi SSW 5.8 mph - 0.08 in   Overcast
8:55 PM 51.8 °F - 48.2 °F 88% 29.53 in 9.0 mi West 20.7 mph 26.5 mph 0.17 in   Overcast
9:16 PM 50.0 °F - 44.6 °F 82% 29.58 in 10.0 mi West 21.9 mph 27.6 mph 0.01 in   Overcast
9:35 PM 46.4 °F 39.5 °F 42.8 °F 87% 29.60 in 10.0 mi West 17.3 mph 24.2 mph 0.01 in   Overcast
9:55 PM 46.4 °F 44.3 °F 41.0 °F 81% 29.55 in 10.0 mi NNW 4.6 mph - 0.01 in   Overcast
10:15 PM 46.4 °F 45.2 °F 41.0 °F 81% 29.56 in 10.0 mi East 3.5 mph - N/A   Overcast
10:35 PM 46.4 °F 44.3 °F 41.0 °F 81% 29.54 in 10.0 mi SSE 4.6 mph - 0.01 in   Overcast
11:15 PM 46.4 °F 45.2 °F 41.0 °F 81% 29.53 in 10.0 mi SW 3.5 mph - N/A   Overcast
11:35 PM 46.4 °F 45.2 °F 41.0 °F 81% 29.54 in 10.0 mi SW 3.5 mph - N/A   Overcast